Wind_Speed
11 10 11 11 11 11 10 10 10 9 8 8 8 7 6 6 5 4 4 3 3 3 3 3 3 4 4 5 5 6 7 7 8 8 8 8 9 9 9 9 9 9 10
11 11 12 12 12 12 11 11 11 10 10 9 8 8 8 7 6 5 5 4 4 4 4 4 5 5 5 6 6 7 7 8 8 8 9 9 10 10 10 10 11 11 11
12 12 12 13 12 12 11 11 11 11 10 10 9 8 8 8 7 6 6 5 5 5 6 6 6 6 7 7 7 7 8 8 8 9 10 10 10 10 10 11 12 12 13
11 12 13 13 13 12 12 12 11 11 11 10 10 10 9 8 8 7 7 6 6 6 6 6 6 7 7 7 7 8 8 9 9 10 11 11 11 11 11 12 13 14 15
11 12 13 13 14 13 13 12 12 11 11 11 10 10 10 9 9 9 8 8 8 8 7 7 8 8 7 7 8 9 10 11 11 11 12 12 12 13 14 14 15 16 16
12 12 13 13 13 13 13 13 12 12 12 12 11 10 10 11 10 10 10 10 10 10 9 9 9 9 9 9 10 11 11 12 12 12 13 13 14 15 15 15 16 17 18
12 12 13 13 13 13 13 13 13 13 12 12 12 12 12 12 12 12 12 12 12 11 11 11 11 11 11 11 12 12 13 13 13 14 14 15 15 15 16 17 18 19 19
13 13 13 13 13 13 14 14 14 14 13 13 13 13 13 13 13 13 13 13 13 13 13 13 13 12 12 13 13 14 14 14 15 15 15 16 16 16 17 18 19 20 21
13 14 14 14 14 14 14 14 15 14 14 14 13 14 14 13 13 14 14 14 14 15 15 15 14 14 14 14 15 15 15 16 16 16 16 17 17 18 19 20 21 22 23
13 14 14 14 15 15 15 15 16 16 15 15 15 15 14 14 14 14 14 14 14 15 15 15 15 15 15 16 16 16 16 16 17 17 18 19 19 20 22 23 24 24 25
14 14 14 14 14 14 15 15 16 16 16 15 15 15 15 14 15 15 15 15 15 15 15 15 15 16 16 17 17 17 17 18 18 19 20 21 22 23 24 25 25 26 27
14 15 15 15 15 15 15 15 15 16 17 16 16 16 16 16 15 15 16 16 16 16 16 16 16 16 17 17 17 18 18 19 20 21 23 23 24 25 26 27 27 28 29
15 15 15 16 16 16 16 16 16 16 17 17 17 17 17 16 16 17 17 18 17 17 17 17 17 17 17 18 19 20 20 21 22 23 24 25 26 27 28 28 29 30 30
15 15 16 16 17 17 17 17 17 17 17 16 17 17 17 17 17 18 18 18 18 18 18 18 19 19 19 20 21 21 22 23 24 25 26 27 28 28 29 29 30 30 32
16 17 16 16 17 17 17 17 18 18 18 18 18 18 18 18 19 19 18 19 19 19 20 20 19 19 20 21 22 23 24 25 25 26 27 27 28 29 29 30 31 33 34
17 18 18 17 17 18 18 18 18 19 19 19 19 19 19 19 19 20 20 19 20 20 20 19 20 20 21 22 23 24 25 26 26 27 28 29 30 30 32 33 34 35 36
18 19 19 19 19 19 19 19 20 20 20 20 20 20 20 20 21 21 21 21 22 21 21 21 21 22 23 24 25 25 26 27 28 29 30 31 32 33 34 35 36 37 38
19 19 19 20 20 20 20 20 20 20 21 21 21 21 21 21 22 22 22 22 22 21 22 22 23 24 25 26 26 27 28 29 30 30 31 32 33 34 35 36 37 39 41
19 19 20 20 20 21 21 21 20 20 20 21 22 22 22 22 22 22 22 22 22 22 23 24 25 25 26 28 29 29 29 30 31 31 33 34 35 35 36 38 40 41 43
19 19 20 21 21 21 21 21 20 20 20 21 22 22 22 22 22 21 21 22 22 24 25 25 26 27 28 29 29 29 30 31 32 33 34 35 36 37 39 40 41 43 44
20 20 20 21 21 21 22 22 21 21 21 22 22 22 22 21 21 22 22 23 24 25 26 27 27 28 29 29 29 30 31 32 32 33 34 36 37 39 40 42 43 44 45
22 21 21 21 21 21 22 22 22 21 21 22 22 22 22 21 22 23 24 24 25 26 27 27 27 28 28 29 29 30 31 32 33 34 35 37 38 40 42 43 43 45 47
22 22 22 22 22 22 22 22 21 21 21 21 21 22 21 22 23 23 24 25 26 27 27 27 28 28 29 29 30 31 32 33 34 35 37 38 40 42 43 43 45 46 48
23 24 23 23 22 22 22 22 22 22 22 22 21 21 22 22 23 24 24 25 25 26 27 27 28 29 29 30 31 32 33 34 35 37 38 40 41 43 43 44 45 47 48
25 25 25 24 24 24 23 23 24 24 24 23 23 23 23 23 23 24 25 26 27 27 28 29 29 30 30 31 32 34 34 35 37 38 40 41 43 43 44 45 46 47 48
26 25 25 25 26 26 25 25 25 25 25 25 25 25 25 25 25 25 25 26 27 28 29 29 30 31 32 32 33 34 35 37 38 40 41 42 44 45 45 46 47 48 49
Wind_Direction
229 226 220 214 211 212 212 212 212 215 219 221 224 226 229 227 227 233 234 246 253 258 272 283 287 295 302 307 309 314 317 317 315 317 320 319 317 316 317 317 317 317 315
227 223 217 215 214 216 218 219 218 217 219 222 224 227 228 228 230 237 242 251 257 263 271 277 284 291 296 300 303 310 315 314 311 311 314 313 313 314 313 311 309 312 313
227 221 217 216 215 218 220 218 217 217 219 221 222 224 227 230 234 238 245 252 261 267 273 280 286 289 293 296 299 305 313 315 313 313 312 311 311 311 311 310 308 309 310
225 217 213 214 215 216 218 220 221 219 220 222 223 225 228 231 234 237 244 253 263 270 276 283 286 289 292 294 298 304 309 311 311 312 311 310 310 308 308 308 309 310 310
221 216 216 216 217 218 219 222 222 222 223 225 229 231 230 231 235 241 247 255 263 268 275 283 287 288 289 295 298 302 306 307 307 309 311 310 308 307 307 306 308 308 308
222 219 218 218 220 220 220 221 223 223 225 229 232 233 234 234 239 245 252 257 263 267 273 280 285 287 288 293 297 302 304 305 306 306 307 307 307 306 305 305 307 307 307
222 222 220 220 221 222 223 223 223 224 227 231 233 236 237 240 243 248 253 259 262 267 273 278 282 285 287 291 295 298 300 302 303 303 303 305 305 305 304 304 305 306 307
223 222 220 222 222 223 226 226 227 229 232 236 238 239 242 244 246 251 256 261 265 267 271 277 280 283 286 290 293 296 297 300 302 303 303 303 303 303 303 305 306 306 306
223 222 223 224 225 226 228 230 230 231 234 237 241 243 245 249 251 256 261 264 267 269 272 276 279 282 285 289 292 293 295 297 299 301 301 301 302 303 303 304 304 305 306
226 225 225 226 227 228 230 232 232 233 236 238 241 243 247 251 254 257 263 265 269 272 274 277 279 281 284 289 291 292 293 295 298 301 301 301 301 302 302 304 304 304 305
231 228 227 229 230 231 232 234 235 237 239 241 243 246 248 254 259 261 264 267 270 274 275 277 279 281 284 286 289 292 292 294 297 299 300 301 302 302 302 303 303 304 304
236 234 231 232 232 235 237 238 240 239 243 242 244 248 251 255 261 263 265 267 271 274 275 277 280 283 285 287 289 291 292 294 296 298 299 300 301 301 302 302 303 304 304
239 238 238 237 236 237 239 241 244 244 246 246 247 249 252 255 260 264 267 269 272 275 274 276 280 282 283 287 290 292 292 294 296 298 299 299 300 301 301 302 304 305 305
240 242 243 240 239 239 240 242 246 247 248 249 249 250 254 257 262 266 269 269 271 274 275 275 277 281 283 286 289 291 293 295 296 297 298 299 300 301 302 303 304 305 306
241 242 241 240 240 240 242 245 248 249 249 250 250 252 256 260 263 266 270 270 271 273 275 276 278 282 286 287 288 290 292 293 295 297 299 301 301 302 303 303 304 304 305
242 242 242 242 242 242 246 249 252 252 250 249 252 255 257 259 262 267 270 272 273 276 278 278 281 284 288 289 291 292 293 294 296 297 299 300 301 302 302 303 303 304 305
244 244 244 245 247 248 249 252 253 254 251 250 253 256 257 260 262 265 268 271 273 275 276 278 281 285 287 288 290 291 293 295 296 297 299 300 301 301 302 303 304 304 305
245 245 247 248 249 251 251 252 253 253 253 253 255 257 259 262 264 266 269 272 273 275 277 280 283 285 286 287 289 291 293 295 297 298 299 300 301 302 302 303 304 305 305
247 249 250 250 252 253 251 253 253 254 254 255 257 258 261 265 267 268 269 270 272 276 279 282 284 285 286 288 290 291 293 296 297 299 300 301 301 302 303 304 305 306 307
249 251 252 251 253 254 254 254 255 257 259 258 259 260 262 265 267 268 268 271 274 279 282 284 285 286 287 289 290 292 294 296 298 299 300 301 301 302 304 305 306 307 307
249 252 253 252 254 256 256 257 258 259 259 260 261 261 262 264 266 267 269 272 276 280 284 285 286 287 289 290 291 293 296 297 298 298 299 301 303 304 305 306 306 307 308
248 251 253 254 255 255 257 259 259 259 260 261 261 263 263 266 268 269 272 274 277 280 282 285 288 290 291 292 292 293 295 296 297 299 300 302 304 305 306 307 307 308 309
249 251 253 254 256 255 255 256 257 258 258 261 264 265 266 269 270 270 272 276 280 281 282 285 287 290 292 293 294 295 297 299 300 301 302 303 304 306 307 307 308 308 309
250 252 253 255 255 255 255 256 258 259 260 263 264 266 270 272 272 272 274 279 282 283 284 286 289 291 292 293 294 297 298 300 302 303 304 305 306 307 307 308 309 310 310
254 253 253 253 254 255 256 258 258 259 262 264 265 268 271 273 276 277 278 281 283 285 286 288 289 291 292 294 295 297 298 300 302 304 305 306 307 308 308 309 310 311 311
254 252 252 253 254 256 257 258 258 260 262 264 266 269 270 273 275 278 281 282 283 285 287 288 290 291 292 294 296 297 299 301 302 304 306 308 309 309 309 310 311 311 312
Height
5834 5836 5837 5839 5841 5842 5844 5845 5846 5847 5848 5849 5850 5851 5852 5852 5853 5853 5853 5853 5853 5853 5853 5853 5853 5852 5852 5851 5851 5850 5849 5847 5846 5845 5844 5843 5842 5841 5840 5839 5838 5836 5835
5832 5833 5835 5837 5839 5840 5842 5843 5844 5845 5846 5847 5848 5849 5850 5851 5851 5852 5852 5852 5852 5852 5852 5852 5851 5851 5851 5850 5849 5848 5847 5846 5845 5844 5843 5842 5841 5840 5838 5837 5836 5834 5833
5829 5831 5833 5835 5836 5838 5839 5841 5842 5843 5844 5845 5847 5848 5848 5849 5850 5850 5851 5851 5851 5851 5851 5850 5850 5849 5849 5848 5848 5847 5846 5844 5843 5842 5841 5840 5839 5838 5836 5835 5833 5832 5830
5827 5829 5830 5832 5834 5836 5837 5838 5840 5841 5842 5844 5845 5846 5847 5847 5848 5849 5849 5849 5849 5849 5849 5849 5848 5848 5847 5847 5846 5845 5844 5843 5842 5841 5839 5838 5837 5835 5834 5832 5831 5829 5827
5825 5826 5828 5830 5831 5833 5835 5836 5837 5839 5840 5841 5843 5844 5845 5845 5846 5847 5847 5847 5848 5848 5847 5847 5847 5846 5845 5845 5844 5843 5842 5841 5840 5838 5837 5835 5834 5833 5831 5829 5828 5826 5824
5822 5824 5826 5827 5829 5830 5832 5834 5835 5836 5838 5839 5840 5841 5842 5843 5844 5845 5845 5845 5846 5845 5845 5845 5844 5844 5843 5843 5842 5841 5840 5838 5837 5835 5834 5832 5831 5829 5828 5826 5824 5822 5820
5820 5822 5823 5825 5826 5828 5829 5831 5832 5834 5835 5836 5838 5839 5840 5841 5841 5842 5842 5843 5843 5843 5843 5842 5842 5841 5841 5840 5839 5838 5837 5835 5834 5833 5831 5829 5828 5826 5824 5822 5820 5818 5816
5818 5819 5821 5822 5824 5825 5827 5828 5830 5831 5832 5834 5835 5836 5837 5838 5838 5839 5839 5840 5840 5840 5840 5839 5839 5838 5838 5837 5836 5835 5833 5832 5831 5829 5827 5826 5824 5822 5820 5818 5816 5814 5811
5815 5816 5818 5819 5821 5822 5824 5825 5827 5828 5829 5831 5832 5833 5834 5835 5835 5836 5836 5836 5837 5836 5836 5836 5835 5835 5834 5833 5832 5831 5830 5828 5827 5825 5823 5821 5820 5818 5816 5813 5811 5808 5806
5812 5813 5815 5816 5818 5819 5821 5822 5823 5825 5826 5827 5829 5829 5830 5831 5832 5832 5833 5833 5833 5833 5832 5832 5831 5831 5830 5829 5828 5827 5826 5824 5823 5821 5819 5817 5815 5813 5810 5808 5805 5803 5800
5809 5811 5812 5813 5815 5816 5818 5819 5820 5821 5822 5824 5825 5826 5827 5828 5828 5828 5829 5829 5829 5828 5828 5828 5827 5826 5826 5825 5824 5823 5821 5820 5818 5816 5814 5812 5810 5807 5805 5802 5799 5796 5793
5806 5807 5808 5810 5811 5813 5814 5815 5816 5817 5819 5820 5821 5822 5823 5824 5824 5824 5824 5825 5825 5824 5824 5823 5823 5822 5821 5820 5819 5818 5816 5815 5813 5811 5809 5806 5804 5801 5798 5795 5792 5789 5786
5802 5803 5804 5806 5807 5809 5810 5811 5812 5813 5815 5816 5817 5817 5818 5819 5819 5820 5820 5820 5820 5820 5819 5819 5818 5818 5817 5815 5814 5813 5811 5809 5807 5805 5803 5800 5797 5794 5791 5788 5785 5781 5778
5798 5799 5800 5801 5803 5804 5806 5807 5808 5809 5810 5811 5812 5813 5813 5814 5815 5815 5815 5815 5815 5815 5814 5814 5813 5812 5811 5810 5809 5807 5805 5803 5801 5799 5796 5793 5790 5787 5784 5781 5777 5773 5770
5794 5795 5796 5798 5799 5800 5801 5802 5804 5805 5806 5807 5808 5808 5809 5810 5810 5810 5810 5810 5810 5809 5809 5809 5808 5807 5806 5804 5803 5801 5799 5797 5794 5792 5789 5786 5783 5780 5776 5773 5770 5766 5762
5790 5791 5792 5794 5795 5796 5797 5798 5799 5800 5801 5802 5803 5803 5804 5804 5804 5805 5805 5805 5804 5804 5804 5803 5802 5801 5800 5798 5796 5794 5792 5790 5787 5784 5782 5779 5775 5772 5769 5765 5761 5757 5753
5785 5787 5788 5789 5790 5791 5792 5793 5794 5795 5795 5796 5797 5798 5798 5799 5799 5799 5799 5799 5798 5798 5798 5797 5796 5795 5793 5792 5789 5787 5785 5783 5780 5777 5774 5771 5767 5764 5760 5756 5752 5748 5743
5780 5781 5783 5784 5785 5786 5787 5788 5789 5789 5790 5790 5791 5792 5792 5793 5793 5793 5793 5792 5792 5792 5792 5791 5789 5788 5786 5784 5782 5780 5777 5775 5772 5769 5766 5762 5759 5755 5751 5747 5742 5738 5733
5775 5776 5777 5778 5779 5780 5782 5782 5783 5783 5784 5785 5785 5785 5786 5786 5786 5786 5786 5786 5786 5786 5785 5784 5782 5781 5779 5777 5774 5772 5769 5767 5764 5760 5757 5754 5750 5746 5742 5737 5732 5727 5722
5769 5770 5772 5773 5774 5775 5775 5776 5777 5777 5778 5778 5779 5779 5779 5779 5780 5780 5780 5780 5779 5779 5778 5776 5775 5773 5771 5769 5766 5764 5761 5758 5755 5752 5748 5745 5741 5737 5732 5727 5722 5717 5711
5763 5764 5765 5766 5768 5769 5769 5770 5770 5771 5771 5772 5772 5773 5773 5773 5773 5773 5773 5773 5772 5772 5770 5769 5767 5765 5763 5760 5758 5756 5753 5750 5747 5743 5739 5736 5731 5727 5722 5717 5711 5706 5700
5757 5758 5759 5760 5761 5762 5763 5763 5764 5764 5765 5765 5766 5766 5766 5766 5767 5767 5767 5766 5765 5764 5762 5761 5759 5757 5755 5752 5750 5747 5744 5741 5738 5734 5730 5726 5721 5717 5711 5706 5700 5695 5688
5750 5752 5753 5753 5754 5755 5756 5757 5757 5758 5758 5759 5759 5759 5760 5760 5760 5760 5759 5758 5757 5756 5754 5753 5751 5749 5747 5744 5741 5738 5735 5732 5729 5725 5721 5716 5712 5706 5701 5695 5689 5683 5677
5744 5745 5745 5746 5747 5748 5749 5750 5751 5751 5752 5752 5752 5753 5753 5753 5753 5752 5752 5751 5749 5748 5746 5745 5743 5741 5738 5736 5733 5730 5727 5723 5719 5715 5711 5706 5701 5696 5690 5684 5678 5671 5665
5736 5737 5738 5739 5740 5741 5742 5743 5744 5744 5745 5745 5746 5746 5746 5746 5745 5745 5744 5743 5742 5740 5738 5737 5735 5733 5730 5727 5724 5721 5718 5714 5710 5706 5701 5696 5690 5685 5679 5673 5666 5660 5653
5728 5729 5730 5731 5732 5733 5734 5735 5736 5736 5737 5738 5738 5738 5738 5738 5738 5737 5736 5735 5733 5732 5730 5728 5726 5724 5721 5718 5715 5712 5708 5704 5700 5695 5690 5685 5680 5674 5668 5661 5655 5648 5641